date,time,DOY,Ta_1_1_1,RH_1_1_1,LWin_1_1_1,LWout_1_1_1,SWin_1_1_1,SWout_1_1_1,PPFD_1_1_1,SWC_1_1_1,Ts_1_1_1
[yyyy-mm-dd],[HH:MM],[ddd.ddd],[K],[%],[W+1m-2],[W+1m-2],[W+1m-2],[W+1m-2],[µmol+1m-2s-1],[m+3m-3],[K]
2012-06-27,00:30,179.020,290.76733333333334,66.671333333333322,-9.8574999999999999,-9999.0,0.20966666666666667,-4.0693333333333319,2.66666666666666658E-003,0.30999999999999989,289.10300000000012
2012-06-27,01:00,179.041,291.10300000000001,63.742333333333328,-9.1236666666666668,-9999.0,0.57899999999999996,-3.3453333333333330,1.33333333333333329E-003,0.30999999999999989,288.97933333333327
2012-06-27,01:30,179.062,291.34133333333335,61.927666666666646,-9.2770370370370365,-9999.0,0.16100000000000000,-3.5596666666666672,3.33333333333333311E-003,0.30999999999999989,288.87966666666665
2012-06-27,02:00,179.083,291.05433333333349,63.209666666666664,-9.3875000000000011,-9999.0,0.26666666666666666,-3.9716666666666667,0.0000000000000000,0.30999999999999989,288.80800000000005
2012-06-27,02:30,179.104,291.15866666666659,61.818333333333314,-8.9077777777777758,-9999.0,0.54733333333333323,-3.6563333333333330,2.66666666666666658E-003,0.30999999999999989,288.74300000000005
2012-06-27,03:00,179.124,291.17500000000007,61.382666666666658,-9.2022222222222236,-9999.0,0.17566666666666661,-3.9913333333333321,4.66666666666666619E-003,0.30999999999999989,288.67166666666657
2012-06-27,03:30,179.145,290.53100000000012,64.846666666666650,-9.7764285714285712,-9999.0,0.16933333333333334,-4.4159999999999995,3.00000000000000006E-003,0.30999999999999989,288.62199999999996
2012-06-27,04:00,179.166,290.15266666666673,66.835333333333338,-9.3586666666666645,-9999.0,0.27833333333333332,-3.9980000000000007,4.66666666666666619E-003,0.30999999999999989,288.55933333333343
2012-06-27,04:30,179.187,289.79466666666667,68.906666666666666,-9.5079999999999991,-9999.0,0.23733333333333331,-4.0733333333333333,2.66666666666666658E-003,0.30999999999999989,288.47766666666666
2012-06-27,05:00,179.208,289.79833333333346,68.517333333333326,-8.7876666666666647,-9999.0,0.54833333333333334,-3.4266666666666672,2.66666666666666658E-003,0.30999999999999989,288.39633333333330
2012-06-27,05:30,179.229,290.95033333333339,62.820999999999998,-8.3470000000000013,-9999.0,0.59399999999999997,-2.6610000000000000,2.53333333333333396E-002,0.30999999999999989,288.32633333333342
2012-06-27,06:00,179.249,291.07800000000003,63.041000000000018,-8.5526666666666635,-9999.0,0.23000000000000004,-2.5036666666666676,0.90633333333333332,0.30999999999999989,288.31433333333337
2012-06-27,06:30,179.270,291.16800000000006,62.593666666666657,-8.1630000000000003,-9999.0,1.0890000000000000,2.7673333333333332,12.102333333333332,0.30999999999999989,288.31533333333334
2012-06-27,07:00,179.291,291.20833333333331,62.788333333333320,-8.4710000000000019,-9999.0,5.0960000000000001,26.574999999999999,56.043666666666667,0.30999999999999989,288.31266666666670
2012-06-27,07:30,179.312,291.19766666666675,63.740333333333332,-8.7779999999999987,-9999.0,17.472333333333335,90.581666666666663,167.24400000000000,0.30999999999999989,288.32600000000002
2012-06-27,08:00,179.333,291.35399999999998,63.990000000000002,-8.8669999999999991,-9999.0,20.411333333333335,118.44433333333338,235.91333333333336,0.30999999999999989,288.35766666666660
2012-06-27,08:30,179.354,291.96166666666676,62.501333333333328,-9.2471428571428564,-9999.0,38.934333333333335,232.25799999999995,459.03266666666678,0.30999999999999989,288.40299999999996
2012-06-27,09:00,179.374,292.78133333333335,59.973999999999982,-9.2890909090909073,-9999.0,47.851999999999990,298.68233333333330,604.69200000000012,0.30999999999999989,288.50900000000007
2012-06-27,09:30,179.395,293.49833333333333,58.030999999999992,-9.4315384615384605,-9999.0,60.442000000000014,381.68066666666670,769.76733333333323,0.30999999999999989,288.67300000000000
2012-06-27,10:00,179.416,293.82433333333330,58.478999999999978,-9.3350000000000026,-9999.0,49.196666666666673,312.04466666666661,630.03899999999999,0.30999999999999989,288.87700000000001
2012-06-27,10:30,179.437,294.12333333333333,59.057999999999993,-8.8758333333333326,-9999.0,55.738666666666667,350.54066666666671,703.14500000000010,0.30999999999999989,289.10333333333330
2012-06-27,11:00,179.458,294.93133333333338,57.775333333333343,-8.4346153846153857,-9999.0,73.109999999999985,465.63599999999991,937.66166666666663,0.30999999999999989,289.34766666666667
2012-06-27,11:30,179.479,296.03599999999994,54.644999999999996,-7.9760000000000000,-9999.0,92.007333333333364,589.73133333333317,1210.9310000000000,0.30999999999999989,289.61466666666666
2012-06-27,12:00,179.499,297.10333333333341,51.887000000000015,-7.7857142857142856,-9999.0,113.49800000000000,741.39566666666656,1537.4756666666665,0.30999999999999989,289.92033333333336
2012-06-27,12:30,179.520,297.84900000000010,51.494999999999990,-8.0542307692307702,-9999.0,120.28000000000000,780.67099999999982,1607.7793333333332,0.30999999999999989,290.33166666666665
2012-06-27,13:00,179.541,298.28833333333330,51.982666666666660,-7.3229999999999986,-9999.0,121.52599999999998,804.54999999999984,1678.0403333333338,0.30999999999999989,290.76566666666673
2012-06-27,13:30,179.562,299.59300000000002,50.692999999999991,-7.7596551724137930,-9999.0,134.51766666666666,894.49566666666681,1869.1203333333331,0.30999999999999989,291.16300000000012
2012-06-27,14:00,179.583,299.88400000000007,49.858333333333320,-6.4809999999999999,-9999.0,135.35666666666665,904.66333333333353,1882.4490000000001,0.30999999999999989,291.56400000000008
2012-06-27,14:30,179.604,300.55433333333332,49.423999999999992,-7.5573076923076927,-9999.0,133.55166666666668,910.89966666666680,1892.8723333333332,0.30999999999999989,291.91566666666677
2012-06-27,15:00,179.624,300.78700000000009,49.587000000000003,-7.6074074074074076,-9999.0,134.30833333333334,902.21899999999994,1866.1466666666668,0.30999999999999989,292.23233333333343
2012-06-27,15:30,179.645,301.18100000000010,49.486333333333327,-7.8974074074074068,-9999.0,132.61500000000004,882.63499999999988,1813.8773333333331,0.30999999999999989,292.47300000000001
2012-06-27,16:00,179.666,301.50066666666675,49.664999999999999,-8.4117241379310332,-9999.0,131.29266666666666,853.23266666666643,1741.0656666666669,0.30999999999999989,292.80266666666671
2012-06-27,16:30,179.687,301.70866666666666,49.386333333333340,-8.7400000000000002,-9999.0,125.35399999999998,810.92366666666646,1641.9740000000004,0.30999999999999989,293.11333333333340
2012-06-27,17:00,179.708,301.79866666666663,49.392666666666678,-8.6210344827586205,-9999.0,117.35933333333330,756.36833333333345,1519.7703333333334,0.30999999999999989,293.56566666666663
2012-06-27,17:30,179.729,301.86899999999997,49.597000000000001,-9.2722727272727283,-9999.0,108.05433333333329,689.66933333333338,1377.4203333333332,0.30133333333333329,293.75299999999999
2012-06-27,18:00,179.749,301.93266666666676,49.986000000000004,-9.6166666666666671,-9999.0,97.766333333333321,615.37900000000013,1218.2020000000002,0.29999999999999999,293.70800000000003
2012-06-27,18:30,179.770,301.87866666666673,50.133333333333326,-9999.0,-9999.0,86.671666666666638,531.99966666666671,1039.8919999999998,0.29999999999999999,293.68033333333329
2012-06-27,19:00,179.791,301.88266666666669,51.307333333333325,-9999.0,-9999.0,72.737000000000009,442.66033333333337,853.92066666666710,0.29999999999999999,293.67200000000020
2012-06-27,19:30,179.812,301.71000000000004,53.046666666666660,-9999.0,-9999.0,60.901999999999994,357.29699999999985,677.34866666666665,0.29999999999999999,293.64300000000003
2012-06-27,20:00,179.833,301.44133333333332,54.205666666666666,-9999.0,-9999.0,48.110999999999990,266.60866666666664,492.48266666666655,0.29999999999999999,293.59633333333329
2012-06-27,20:30,179.854,300.98633333333333,57.123000000000012,-9999.0,-9999.0,22.096666666666660,124.59066666666668,242.85133333333337,0.29999999999999999,293.50400000000002
2012-06-27,21:00,179.874,300.44100000000003,59.652999999999984,-9999.0,-9999.0,17.721000000000000,84.786000000000001,150.14300000000000,0.29999999999999999,293.36033333333336
2012-06-27,21:30,179.895,300.11666666666667,60.927999999999997,-9999.0,-9999.0,7.4756666666666671,43.596666666666657,93.725333333333310,0.29999999999999999,293.18500000000012
2012-06-27,22:00,179.916,299.07833333333326,65.681999999999988,-9999.0,-9999.0,8.83333333333333887E-002,3.5623333333333336,17.183333333333337,0.29999999999999999,293.00466666666671
2012-06-27,22:30,179.937,296.95666666666676,73.806333333333356,-9999.0,-9999.0,-0.91333333333333322,-3.6019999999999999,0.96999999999999953,0.29999999999999999,292.80533333333335
2012-06-27,23:00,179.958,296.43233333333336,73.698333333333338,-9999.0,-9999.0,-0.36566666666666681,-3.5663333333333336,1.90000000000000030E-002,0.29999999999999999,292.60733333333337
2012-06-27,23:30,179.979,296.30966666666671,73.494666666666660,-9.5280952380952382,-9999.0,-0.19599999999999998,-2.3780000000000001,1.00000000000000002E-003,0.29999999999999999,292.41499999999996
2012-06-28,00:00,180.000,296.18766666666670,74.476999999999990,-9999.0,-9999.0,-0.28333333333333333,-2.5423333333333336,3.33333333333333322E-004,0.29999999999999999,292.24533333333341
